Find Starlink 31000

NORAD ID: 58488 Int'l Des: 2023-186 Owner: SPXS Country: US Constellation: starlink operational
LEOCIRCULAR

現在のビュー

3D地球を読み込み中...

About Starlink 31000

Starlink 31000 (NORAD 58488) is a starlink constellation satellite (v2 mini) launched Dec 3, 2023 by SPXS of US. It operates in LEO, CIRCULAR orbit with a mass of 730.00 kg.

次回通過

Passes for default location (London). Set your location on the main map for personalized predictions.

高度履歴

Loading altitude history...

軌道要素

1 58488U 23186R 26235.40894122 .00001522 00000-0 64833-4 0 9999
2 58488 43.0006 202.1118 0000860 276.3675 83.7078 15.27579036151389
Epoch: Aug 23, 2026 • Age: 15 hours

現在のステータス

高度 495.2 km
遠地点 / 近地点 N/A
速度 7.62 km/s
衛星直下点 -41.61°S, 101.68°E
打ち上げ日 Dec 3, 2023
運用期間 2.7 years
タイプ internet

技術仕様

分類 Payload
質量 730.00 kg
乾燥質量 700.00 kg
総質量 730.00 kg
長さ 0.30 m
直径 4.10 m
スパン 29.00 m
形状 Box + pan
製造者 SPXS
バスタイプ Starlink V2M
フェーズステータス In Orbit
所有者/国 SPXS/US

Most Searched